Wind_Speed
23 25 22 25 25 20 17 24 21 19 18 19 19 19 19 18 18 21 21 11 10 9 6 5 8 7 8 4 4 2 3 2 3 3 3 4 4 2 2 3 2 3 3 1 5
28 27 25 22 21 21 23 22 20 20 21 21 21 19 16 16 26 27 14 14 13 9 6 6 4 5 4 3 3 3 2 4 1 2 3 5 2 5 5 3 4 4 4 3 3
35 32 26 23 23 22 19 19 19 20 20 19 11 6 1 2 5 7 16 14 13 7 7 4 4 3 4 2 2 2 3 2 3 3 2 3 4 2 3 5 8 4 3 2 3
32 28 27 26 21 21 21 21 21 19 13 9 4 4 6 1 4 8 13 11 12 10 4 11 5 4 3 2 3 2 2 2 3 2 3 4 3 5 8 10 7 7 4 3 8
30 28 26 24 21 19 18 16 15 11 8 4 3 1 2 6 3 8 10 11 13 16 17 4 5 2 3 0 2 2 2 4 7 8 7 8 11 11 9 13 14 9 10 12 12
26 24 22 21 20 18 17 16 15 15 13 9 3 4 4 7 4 7 8 10 14 14 13 10 2 1 3 1 0 2 5 8 7 7 5 6 8 3 9 9 12 11 13 11 11
24 21 18 16 14 14 12 11 10 10 9 5 6 17 13 4 4 7 7 8 8 6 3 3 2 2 3 0 1 2 6 5 3 3 4 2 5 8 16 7 14 16 13 11 9
20 20 18 13 11 10 11 10 8 7 6 5 5 8 4 3 3 5 6 2 2 3 0 2 2 4 1 2 4 3 3 4 3 3 5 3 17 17 18 7 11 11 9 7 9
16 17 18 18 13 7 5 7 5 3 5 2 3 6 2 1 1 5 5 4 3 5 3 1 3 2 3 3 4 5 4 6 9 4 3 3 20 14 10 12 15 16 14 12 10
14 11 12 14 15 13 6 5 7 5 2 3 5 5 2 1 3 5 3 5 2 3 2 5 4 3 3 3 2 4 6 6 10 5 4 16 25 23 21 18 16 16 15 13 11
15 11 9 11 13 14 4 4 3 4 11 4 1 4 2 5 4 2 3 1 1 5 4 5 3 4 5 5 3 3 5 15 16 14 8 12 24 27 24 18 16 16 15 12 12
18 14 11 10 7 13 7 6 2 3 5 2 1 1 1 2 3 3 3 5 5 3 2 4 3 2 2 3 5 5 9 12 10 2 7 16 26 22 14 11 15 17 12 12 6
19 15 11 8 4 8 18 6 2 1 5 3 1 1 1 2 1 3 3 2 2 1 1 3 2 3 2 4 5 4 6 5 8 11 5 14 9 6 5 5 5 11 11 8 11
18 14 10 6 2 4 5 6 2 2 5 7 6 3 3 2 3 1 1 2 1 2 1 5 3 1 2 4 3 4 4 5 8 10 6 8 6 7 8 12 4 7 6 9 8
19 11 6 7 3 4 2 3 2 1 5 3 5 3 1 1 4 2 0 2 2 2 4 3 1 1 2 4 4 8 5 9 3 2 4 2 3 9 5 7 9 7 6 6 6
17 10 5 5 7 3 3 1 1 6 2 4 3 5 4 2 3 4 1 4 0 1 1 6 3 2 3 3 4 8 6 3 2 1 1 2 1 6 4 4 7 4 6 5 2
12 9 9 6 2 3 3 2 5 7 2 5 3 4 2 3 4 3 4 5 3 5 6 5 2 2 2 4 2 6 5 4 5 5 3 2 2 11 11 10 4 9 7 4 4
7 7 10 10 4 2 2 4 10 2 3 2 3 3 2 4 1 5 2 5 1 3 2 4 6 1 2 1 2 4 3 3 4 4 6 3 5 6 4 7 9 7 8 5 4
4 4 4 10 6 1 4 7 4 3 2 5 4 2 4 3 1 5 2 1 2 2 3 4 5 2 1 1 3 2 3 1 1 2 3 4 7 10 4 5 6 5 4 5 5
2 2 5 12 8 0 5 3 2 2 1 1 3 2 2 4 5 5 2 2 2 1 1 2 5 1 2 2 3 2 4 2 2 5 5 4 5 5 4 5 6 8 8 7 6
3 3 7 15 3 4 4 2 3 3 2 0 1 3 2 4 1 2 2 2 2 2 2 3 2 4 1 4 6 2 1 3 3 2 2 4 7 5 5 5 7 8 7 8 8
4 3 11 14 4 2 2 1 1 2 0 1 1 2 2 2 3 3 3 4 5 5 3 3 3 4 5 1 2 1 4 4 3 3 2 1 8 3 6 6 5 9 9 8 7
2 2 7 7 3 4 5 3 2 1 2 2 2 4 2 2 3 2 3 1 5 5 5 5 1 5 4 3 2 3 4 3 4 2 7 4 7 2 4 7 6 9 12 12 11
3 3 4 5 0 3 4 3 5 1 2 1 2 2 1 2 3 3 3 1 3 3 3 6 2 7 7 7 1 5 5 6 5 3 4 11 15 25 17 11 16 13 11 12 11
4 0 2 4 3 1 1 1 3 4 0 0 1 4 3 3 3 4 3 4 3 4 3 4 5 6 13 14 13 20 20 14 14 16 8 2 8 17 18 16 16 14 11 13 13
2 2 1 3 1 1 2 3 4 4 2 2 3 2 5 5 7 17 11 3 7 1 5 3 4 1 8 12 12 12 20 16 20 19 24 24 27 24 22 11 8 10 10 12 12
1 2 1 2 2 2 4 5 3 2 5 5 6 3 5 14 15 15 13 11 10 8 9 7 3 2 4 2 8 8 7 7 6 8 7 9 13 5 8 7 7 8 10 11 13
Wind_Direction
71 89 89 90 98 122 103 118 119 118 115 114 110 110 104 93 84 66 49 23 4 355 38 56 60 63 56 61 50 99 77 219 241 196 283 336 342 314 312 253 256 222 192 263 160
88 92 95 93 96 115 89 111 110 115 116 118 118 113 109 92 70 52 24 13 10 18 46 58 21 47 53 50 31 79 135 221 214 249 267 305 290 320 331 334 264 252 234 227 163
82 79 89 92 90 90 91 98 108 114 119 115 104 94 48 287 53 2 4 8 14 24 48 76 67 61 64 22 11 156 198 182 238 239 245 263 286 226 272 282 236 228 224 212 230
70 80 84 92 93 99 100 101 102 109 112 105 103 72 47 8 85 343 1 19 32 39 70 45 35 53 75 63 339 327 271 227 275 267 310 278 272 266 227 246 247 215 223 269 275
71 79 90 98 103 104 101 99 100 100 92 68 39 37 57 50 59 6 31 33 36 44 47 55 50 72 103 149 324 196 276 290 261 272 258 259 252 253 254 245 254 257 252 243 244
63 73 84 93 96 91 86 83 81 77 68 63 78 86 76 78 359 15 26 35 40 43 44 49 96 97 102 104 83 297 268 277 281 267 259 259 268 194 266 263 260 255 248 233 227
60 66 71 77 76 74 69 69 67 65 67 61 61 80 64 143 28 26 22 37 21 34 55 63 66 126 170 149 279 286 310 304 246 228 273 291 277 233 254 291 265 265 255 267 255
53 58 60 59 56 54 46 48 60 64 60 68 78 81 87 19 32 25 27 9 13 40 117 69 44 106 77 253 12 14 67 353 275 270 267 114 285 275 259 268 269 276 270 258 277
41 47 53 52 39 12 31 43 42 73 41 80 39 91 97 41 28 8 12 343 329 0 48 139 87 97 29 51 2 19 280 262 295 234 283 212 291 265 263 262 270 275 267 269 273
18 16 18 18 13 6 336 247 73 33 28 49 65 55 18 302 321 341 345 344 344 333 4 36 44 41 36 70 271 284 288 252 260 283 275 286 273 274 265 257 245 254 257 252 254
10 360 349 349 358 0 353 144 33 352 43 103 181 123 314 338 308 315 333 268 349 58 34 15 20 230 223 200 224 254 255 268 280 288 295 278 286 289 285 265 244 241 247 251 249
358 353 347 355 13 20 62 75 95 152 87 8 100 9 286 337 10 334 18 54 40 14 7 12 249 225 276 251 251 256 280 285 289 302 304 304 299 294 298 272 237 238 241 241 237
356 353 349 349 26 35 66 77 96 136 91 4 342 20 283 40 327 315 48 60 73 341 216 188 276 9 304 303 293 257 246 277 283 328 263 328 287 320 310 320 288 249 242 232 221
2 356 354 3 80 44 57 34 63 55 79 321 351 9 5 59 353 317 94 117 325 266 287 227 275 255 291 266 210 286 206 263 300 341 324 25 294 314 325 327 334 303 268 260 236
1 9 32 43 71 48 40 9 106 87 58 301 310 306 22 18 305 358 98 74 238 260 77 279 348 11 282 233 186 253 308 291 292 242 298 339 297 276 336 336 353 341 327 300 285
6 27 69 74 68 42 337 97 64 46 279 341 294 344 6 6 326 322 24 45 216 269 200 259 304 230 235 281 218 298 307 40 71 329 344 295 46 287 303 306 319 333 352 328 307
17 49 70 58 57 18 120 59 45 88 295 312 322 5 334 306 335 35 9 7 41 14 8 327 256 276 241 316 13 0 359 343 358 8 266 348 274 252 278 279 266 303 305 307 287
35 83 63 52 43 67 125 58 65 244 276 356 325 316 334 357 342 338 11 7 67 80 48 37 334 102 337 88 318 9 35 106 301 330 300 331 237 262 240 290 283 276 278 289 261
67 67 40 4 4 355 77 47 178 206 310 330 316 14 340 11 323 11 27 245 231 198 63 18 278 308 161 311 99 8 41 164 258 235 290 268 283 288 302 330 342 331 322 271 249
57 78 13 353 341 43 70 147 202 222 233 15 346 54 316 307 7 28 325 205 186 199 98 188 303 215 285 131 37 140 150 37 30 347 306 290 282 248 327 340 343 333 313 296 286
36 44 354 344 355 51 99 222 261 228 193 160 242 298 293 309 289 288 262 255 174 150 56 129 129 286 310 190 170 125 140 74 127 171 225 307 276 217 250 301 311 301 293 290 290
26 27 348 349 45 32 81 287 298 266 139 225 158 235 236 314 289 291 265 230 153 149 152 195 160 276 256 359 45 148 184 161 133 241 218 169 272 243 249 268 270 287 295 292 265
54 275 350 358 75 6 317 308 256 255 239 194 235 202 164 256 308 221 286 338 157 164 172 175 223 324 348 48 10 242 206 139 102 70 201 167 259 233 274 292 277 283 294 290 285
51 358 334 44 53 100 13 323 320 297 284 200 293 113 141 262 219 289 280 303 188 226 190 164 195 196 227 245 139 242 212 201 162 166 205 229 276 278 295 301 312 312 299 292 288
33 288 182 331 349 62 221 281 307 320 218 207 280 231 192 298 275 238 242 280 188 231 148 176 237 207 253 267 268 267 267 237 215 221 214 274 236 275 293 300 303 307 299 304 303
86 64 330 247 262 218 193 238 223 276 226 278 213 316 186 233 241 285 285 254 242 156 179 171 262 145 277 251 257 265 255 239 234 237 244 259 276 279 278 286 276 279 288 300 305
131 137 125 257 243 240 226 237 246 182 255 219 221 252 254 253 254 257 259 253 241 183 195 173 216 293 260 338 306 281 245 177 185 199 201 200 225 274 288 277 280 302 304 294 302
Height
784 788 784 788 790 794 796 799 802 804 805 807 809 812 812 812 812 810 813 820 819 815 812 812 811 811 810 816 819 822 832 835 829 830 822 820 818 811 810 809 807 804 803 802 801
788 792 793 795 797 799 800 804 806 807 809 810 812 814 814 813 812 814 822 820 818 815 813 812 813 812 818 821 823 827 835 829 826 826 825 822 821 817 814 812 807 803 801 801 801
799 798 799 801 803 805 807 808 809 810 812 814 815 816 815 814 814 823 823 821 819 816 815 815 815 815 822 824 827 830 829 828 824 822 822 821 820 816 815 812 807 804 801 800 800
809 808 808 808 810 811 812 813 814 815 816 815 816 816 815 815 828 826 824 822 820 817 815 815 817 821 828 828 829 830 826 825 822 820 822 821 817 815 812 805 801 802 802 801 799
817 816 815 815 815 816 816 816 816 816 816 816 816 816 816 822 830 827 825 823 821 819 817 818 822 826 829 831 829 828 826 824 821 820 818 816 814 810 805 800 796 797 798 798 797
822 822 822 821 821 820 820 818 818 818 818 817 817 817 818 829 829 827 826 824 822 821 822 822 825 826 829 829 830 829 827 823 820 817 816 814 809 811 800 794 793 793 788 788 789
826 825 825 824 823 822 821 821 820 819 819 819 819 819 822 832 828 827 826 824 825 825 825 825 824 825 828 828 829 827 826 821 815 814 811 809 809 804 791 792 790 785 782 783 782
830 829 827 826 825 824 823 821 821 821 821 821 820 820 831 830 829 828 826 827 826 826 825 823 824 826 827 827 829 830 830 828 814 812 806 806 795 789 784 788 786 783 781 780 778
832 830 828 827 827 825 824 824 823 823 823 822 822 822 834 831 830 829 828 827 827 826 825 825 825 830 829 834 835 839 835 834 823 811 807 808 791 783 779 781 780 777 776 775 774
834 832 830 828 827 825 823 824 825 824 824 824 825 830 833 833 830 829 829 828 827 827 828 828 833 836 841 842 843 838 842 836 829 812 808 806 790 776 771 771 770 767 767 769 769
836 834 832 830 827 825 822 823 828 830 827 834 834 833 832 832 831 830 829 829 829 830 836 837 841 836 835 839 836 839 843 834 818 810 811 797 782 766 759 760 761 759 759 763 764
835 832 831 829 827 825 822 826 831 832 837 833 833 833 832 832 833 830 829 832 833 839 839 845 842 833 834 837 840 841 839 827 815 813 809 792 780 759 756 752 751 751 754 757 761
833 830 828 827 826 826 826 831 831 831 836 834 833 833 833 833 834 832 831 835 837 840 840 845 834 834 835 835 837 837 834 830 824 817 809 798 771 766 757 757 753 751 750 752 753
833 829 827 825 828 828 830 831 831 831 859 842 837 835 834 832 834 832 832 835 837 838 840 844 835 832 832 835 833 832 823 824 823 822 817 810 796 775 765 756 755 755 755 752 750
832 829 827 826 828 830 833 832 831 833 867 841 839 834 833 837 836 833 832 833 836 835 842 828 832 832 833 830 831 822 820 822 823 826 821 817 821 772 768 752 748 753 754 755 755
832 829 828 829 830 832 832 831 833 856 868 844 839 840 837 835 834 833 833 833 835 838 841 841 838 835 832 827 828 824 820 825 831 818 823 821 821 777 766 758 753 751 752 754 753
832 831 830 830 832 831 832 833 852 863 849 843 845 843 845 840 836 835 839 843 844 844 847 841 833 832 830 829 826 829 829 828 815 831 807 824 822 785 764 761 760 755 751 753 756
834 833 833 832 832 831 832 838 855 845 846 846 845 845 841 842 839 842 840 847 847 848 866 860 834 827 829 828 832 835 836 855 839 834 832 825 815 766 764 761 760 758 757 753 754
834 835 834 834 832 831 835 861 854 852 849 851 846 840 841 841 842 843 843 847 845 847 840 859 836 831 830 829 831 834 841 841 847 868 851 821 801 771 761 756 756 755 755 754 754
834 834 835 833 831 831 841 853 851 849 847 848 845 844 842 845 843 847 843 838 840 846 847 850 857 833 832 831 835 830 838 847 857 852 821 810 815 783 759 756 759 757 756 754 754
835 838 835 833 831 834 859 859 849 846 847 848 848 848 847 847 846 845 839 838 841 848 849 854 859 834 836 833 832 839 842 852 859 851 845 852 782 777 769 765 764 761 759 756 754
839 845 836 833 843 860 864 849 847 845 847 847 849 849 848 848 848 845 843 840 842 846 848 853 862 862 830 837 835 833 834 839 842 852 856 859 808 767 768 767 767 760 756 752 750
853 852 838 835 862 865 856 849 847 845 846 848 846 850 851 849 847 846 842 839 844 845 847 851 861 865 818 839 838 836 837 839 853 853 846 845 790 764 769 763 760 758 751 747 743
855 858 849 847 861 855 859 852 849 846 846 847 847 849 851 849 850 844 842 837 844 843 840 842 858 847 826 816 828 831 833 836 834 859 834 808 769 745 753 762 753 752 750 747 742
860 865 867 866 860 859 858 856 853 848 848 848 847 849 848 847 845 847 844 840 840 839 844 844 849 849 832 828 827 818 815 818 830 814 818 779 785 759 756 756 751 750 748 741 733
862 864 867 865 862 858 855 853 852 848 845 843 849 842 847 848 840 836 834 839 833 844 843 850 841 856 831 818 819 819 799 801 804 804 801 788 781 760 753 755 755 748 745 739 731
859 860 860 856 859 854 853 846 843 844 839 839 842 842 842 837 830 827 825 823 823 831 838 843 843 842 817 823 825 803 775 777 785 787 786 791 765 760 754 753 750 743 740 736 730